Regional Weather Roundup
Issued by NWS

Home | Current Version | Previous Version | Text Only | Print | Product List | Glossary On
Versions: 1 2 3 4 5 6 7 8 9 10 11 12 13 14 15 16 17 18 19 20 21 22 23 24 25 26 27 28
000
ASUS46 KSEW 230310
RWRWA

WASHINGTON REGIONAL WEATHER ROUNDUP
NATIONAL WEATHER SERVICE SEATTLE WA
800 PM PDT SUN OCT 22 2017

NOTE:"FAIR" INDICATES FEW OR NO CLOUDS BELOW 12,000 FEET WITH NO
SIGNIFICANT WEATHER AND/OR OBSTRUCTIONS TO VISIBILITY.

WAZ507-509-555>559-230400-
SEATTLE, TACOMA, EVERETT, AND VICINITY

CITY           SKY/WX    TMP DP  RH WIND       PRES   REMARKS
EVERETT        MOCLDY    53  48  83 SE9       30.38R
BOEING FIELD   CLOUDY    56  49  77 S8        30.38R
RENTON         CLOUDY    55  50  83 S7        30.38R
SEATAC AIRPORT CLOUDY    54  48  80 S12       30.39R
JBLM-MCCHORD   CLOUDY    52  52 100 S8        30.40S
PUYALLUP       CLOUDY    50  50 100 CALM      30.41R
BREMERTON      CLOUDY    51  49  92 SW7       30.39R
JBLM-FT LEWIS  CLOUDY    51  51 100 S6        30.40S
TACOMA NARROWS CLOUDY    53  48  83 S8        30.39S
$$

WAZ001-503-506-510-514-515-230400-
NORTH INTERIOR

CITY           SKY/WX    TMP DP  RH WIND       PRES   REMARKS
BELLINGHAM     MOCLDY    54  45  71 S9        30.36R
FRIDAY HARBOR  MOCLDY    50  44  80 CALM      30.38R
EASTSOUND      MOCLDY    54  43  66 S8G14     30.36R
PORT ANGELES   MOCLDY    50  44  80 W10       30.38R
EDIZ HOOK      FAIR      49  45  87 S5        30.38R
PORT TOWNSEND  MOCLDY    46  45  93 CALM      30.38R
NAS WHIDBEY    MOCLDY    53  42  66 NW5       30.41R
ARLINGTON      MOCLDY    52  46  80 S7        30.39R
BURLINGTON     CLOUDY    52  46  82 CALM      30.39R
$$

WAZ020-022-039-040-504-511-512-230400-
SOUTHWEST INTERIOR

CITY           SKY/WX    TMP DP  RH WIND       PRES   REMARKS
SHELTON        MOCLDY    52  49  89 CALM      30.38R
OLYMPIA        CLOUDY    51  50  96 S6        30.41R
CHEHALIS       CLOUDY    54  52  94 CALM      30.42S
KELSO          LGT RAIN  54  52  93 CALM      30.44R
VANCOUVER      MOCLDY    52  52 100 CALM      30.42R
SCAPPOOSE, OR  MOCLDY    52  51  97 W3        30.42R
PORTLAND, OR   MOCLDY    53  52  96 CALM      30.43R
$$

WAZ021-516-517-230400-
WASHINGTON COAST

CITY           SKY/WX    TMP DP  RH WIND       PRES   REMARKS
FORKS          CLOUDY    52  50  93 CALM      30.38R
HOQUIAM        CLOUDY    54  51  90 CALM      30.40R
ASTORIA, OR    CLOUDY    53  52  96 SE5       30.41R
$$

WAZ019-023-024-040-567>569-230400-
CASCADE MOUNTAINS AND COLUMBIA GORGE

CITY           SKY/WX    TMP DP  RH WIND       PRES   REMARKS
STAMPEDE PASS  CLOUDY    39  37  92 SW8G22    30.34R
TROUTDALE, OR  MOCLDY    54  52  93 CALM      30.42R
HOOD RIVER, OR PTCLDY    54  46  76 NW6       30.40R
THE DALLES, OR PTCLDY    54  46  74 CALM      30.39R
$$

WAZ026-027-041>044-520-521-230400-
EAST SLOPES

CITY           SKY/WX    TMP DP  RH WIND       PRES   REMARKS
OMAK           CLOUDY    55  29  36 CALM      30.27R
WENATCHEE      MOCLDY    46  37  71 NE6       30.32R
ELLENSBURG     CLOUDY    50  40  68 NW14      30.34R
YAKIMA         CLOUDY    58  38  47 W12       30.34R
SUNNYSIDE ARPT CLOUDY    52  37  56 W7        30.36R
YAKIMA TC      FAIR      47  37  68 SE7       30.33R
$$

WAZ028-034-035-230400-
COLUMBIA BASIN

CITY           SKY/WX    TMP DP  RH WIND       PRES   REMARKS
EPHRATA        CLOUDY    48  34  58 SW5       30.32R
MOSES LAKE     CLOUDY    51  37  58 W14       30.32R
PASCO          CLOUDY    54  41  61 NW9       30.37R
RICHLAND ARPT  CLOUDY    56  40  56 SW6       30.36R
HERMISTON, OR  CLOUDY    55  45  68 SW12      30.38R
$$

WAZ036>038-230400-
NORTHEAST WASHINGTON

CITY           SKY/WX    TMP DP  RH WIND       PRES   REMARKS
SPOKANE GEIGER MOCLDY    48  37  65 SW18      30.28R
SPOKANE FELTS  MOCLDY    53  35  50 W5        30.30R
FAIRCHILD AFB  CLEAR     48  35  62 SW16      30.28R
COEURDALENE,ID MOCLDY    46  35  65 S8        30.30R
DEER PARK      MOCLDY    49  34  56 SW7       30.28R
$$

WAZ029>033-230400-
SOUTHEAST WASHINGTON

CITY           SKY/WX    TMP DP  RH WIND       PRES   REMARKS
PULLMAN        CLOUDY    49  40  71 W8        30.38R
LEWISTON, ID   CLOUDY    55  39  54 S7        30.36R
WALLA WALLA    CLOUDY    56  44  64 SW12      30.39R
PENDLETON, OR  CLOUDY    53  42  66 MISG      30.39R
$$




USA.gov is the U.S. government's official web portal to all federal, state and local government web resources and services.